Regional Weather Roundup
Issued by NWS

Home | Current Version | Previous Version | Text Only | Print | Product List | Glossary On
Versions: 1 2 3 4 5 6 7 8 9 10 11 12 13 14 15 16 17 18 19 20 21 22 23 24 25 26 27 28 29 30 31 32 33 34 35 36 37 38 39 40 41 42 43 44 45 46 47 48 49 50
000
ASUS43 KIND 030059
RWRIN

WEATHER ROUNDUP FOR INDIANA
NATIONAL WEATHER SERVICE INDIANAPOLIS IN
900 PM EDT SUN AUG 02 2015

NOTE: "FAIR" INDICATES FEW OR NO CLOUDS BELOW 12,000 FEET WITH NO
SIGNIFICANT WEATHER AND/OR OBSTRUCTIONS TO VISIBILITY.

* - STATION DOES NOT REPORT WEATHER SUCH AS PRECIPITATION OR FOG.

+ - STATION NOT QUALITY CONTROLLED BY THE NATIONAL WEATHER SERVICE.
    USE DATA WITH CAUTION...ESPECIALLY DEWPOINT AND RELATIVE
    HUMIDITY OBSERVATIONS.

INZ001>003-010>013-019-020-030200-
NORTHWEST INDIANA

CITY           SKY/WX    TMP DP  RH WIND       PRES   REMARKS
GARY /AIRPORT/ PTCLDY    86  70  58 SW16G39   29.70R
KNOX *+        CLEAR     82  64  54 SW16G23   29.72S
MONTICELLO +   CLEAR     82  70  66 S12       29.76F

$$

LMZ046-743>745-030200-
SOUTHERN LAKE MICHIGAN

STATION/POSITION TIME  TEMP    WIND        PRES    WAVE
                       AIR SEA DIR/SP/G            HT
                 (UTC) (F)     (DEG/KT/KT) (MB)    (FT)
BURNS HARBOR     0025   86     220/ 26/ 27 1005.4F
MICHIGAN CITY    0000   85     190/ 25/ 31   N/A
5NW MICH CITY    0000   82 74  230/ 17/ 25   N/A     5

$$

INZ004-005-014>016-021>024-030200-
NORTH CENTRAL INDIANA

CITY           SKY/WX    TMP DP  RH WIND       PRES   REMARKS
GOSHEN         CLEAR     82  65  56 SW17      29.72S
SOUTH BEND     CLEAR     85  65  51 SW21G30   29.70S
WARSAW +       CLEAR     81  68  65 SW6       29.75S

$$

INZ006>009-017-018-025>027-030200-
NORTHEAST INDIANA

CITY           SKY/WX    TMP DP  RH WIND       PRES   REMARKS
ANGOLA *+      PTCLDY    82  75  78 SW10      29.74R
FORT WAYNE     PTCLDY    81  66  60 SW14      29.79S

$$

INZ028-029-035-036-043>045-051>053-030200-
WEST CENTRAL INDIANA

CITY           SKY/WX    TMP DP  RH WIND       PRES   REMARKS
CRAWFORDSVL +  CLEAR     78  66  68 S9          N/A
GREENCASTLE +  CLEAR     79  64  61 S6        29.85S
LAFAYETTE      CLEAR     81  68  64 S6        29.78S
TERRE HAUTE    CLEAR     83  70  64 S9        29.83F

$$

INZ030>032-037>040-046>048-054>057-064-065-030200-
CENTRAL INDIANA

CITY           SKY/WX    TMP DP  RH WIND       PRES   REMARKS
FRANKFORT +    CLEAR     79  71  76 S5        29.83S
GREENWOOD *+   CLEAR     79  63  57 S6        29.86S
INDIANAPOLIS   PTCLDY    81  65  58 S13       29.83S
-EAGLE CREEK   CLEAR     81  67  62 S9        29.83S
KOKOMO *+      CLEAR     81  66  61 SW14      29.80F
MT COMFORT *+  CLEAR     79  61  53 S8        29.86R
SHELBYVILLE    CLEAR     79  65  62 S7        29.85S

$$

INZ033-034-041-042-049-050-058-059-030200-
EAST CENTRAL INDIANA

CITY           SKY/WX    TMP DP  RH WIND       PRES   REMARKS
MUNCIE         CLEAR     79  63  57 SW14G20   29.84R

$$

INZ060-061-067>069-081>083-085>088-030200-
SOUTHWEST INDIANA

CITY           SKY/WX    TMP DP  RH WIND       PRES   REMARKS
EVANSVILLE     CLEAR     83  67  58 S6        29.87F
HUNTINGBURG *+ CLEAR     79  64  61 S5        29.89S

$$

INZ062-063-066-070>080-084-089>092-030200-
SOUTH CENTRAL AND SOUTHEAST INDIANA

CITY           SKY/WX    TMP DP  RH WIND       PRES   REMARKS
BLOOMINGTON    CLEAR     77  67  71 S7        29.87S
MADISON *+     CLEAR     75  64  69 CALM      29.91R
SEYMOUR +      CLEAR     75  66  73 S7        29.87F

$$




USA.gov is the U.S. government's official web portal to all federal, state and local government web resources and services.